Wind_Speed
17 17 23 25 24 23 13 31 44 48 44 42 40 36 36 33 31 32 32 32 31 29
16 8 4 7 5 12 14 23 36 42 35 35 35 35 35 30 30 31 32 33 32 31
17 13 16 15 12 11 7 9 33 24 20 23 28 31 31 30 28 29 30 31 31 34
15 28 29 32 31 28 23 15 7 24 31 27 20 19 19 15 18 29 29 29 30 30
22 35 39 40 40 37 27 33 36 33 35 31 20 24 20 14 12 16 17 2 14 20
35 46 45 42 46 50 40 36 39 35 38 37 29 34 23 19 18 16 15 14 14 14
38 39 42 44 46 53 46 48 46 43 40 39 38 36 31 28 24 22 21 19 17 17
36 36 41 53 49 44 45 44 37 41 45 46 44 41 32 29 27 26 26 27 22 21
39 40 42 40 52 48 42 39 39 40 42 43 40 34 37 35 35 31 31 31 28 24
35 35 38 45 44 38 36 31 32 37 41 40 40 36 34 33 31 31 32 34 34 31
34 37 38 37 38 37 34 36 36 40 39 40 43 43 36 32 32 31 31 30 31 29
34 36 35 37 35 34 29 31 34 35 35 35 39 40 37 31 26 25 25 25 27 29
31 36 40 37 33 29 33 32 29 28 34 31 34 35 34 30 27 24 24 26 28 29
34 34 36 40 38 33 32 30 30 28 31 36 32 34 32 30 29 27 21 22 24 26
Wind_Direction
304 285 256 261 265 221 291 308 230 191 187 189 192 189 195 200 202 207 213 220 222 225
348 338 221 216 199 215 235 343 341 171 177 182 183 187 195 198 205 210 215 221 225 226
19 32 69 51 68 29 234 298 7 100 117 163 176 198 203 207 213 217 222 224 229 232
23 53 52 53 64 65 66 113 42 69 85 73 92 124 148 176 200 214 220 226 228 233
45 59 53 49 50 57 45 72 78 56 71 67 36 79 76 73 56 68 68 37 232 231
50 54 52 48 53 57 49 50 67 64 58 67 43 63 65 63 58 52 51 51 42 32
39 55 61 55 49 51 52 48 55 59 59 54 52 56 55 57 54 51 50 49 48 31
36 44 54 59 52 49 48 51 47 53 53 52 48 49 51 58 58 54 52 47 45 33
35 40 45 55 56 51 45 45 48 49 51 50 46 46 51 56 52 49 46 43 40 34
37 41 46 47 53 50 47 48 48 50 49 48 44 48 49 49 49 47 43 38 36 30
35 42 43 47 48 44 42 42 40 43 43 41 37 38 42 43 44 42 42 40 35 33
38 42 43 42 43 41 39 43 43 42 41 40 37 34 37 38 37 37 36 35 36 34
50 48 46 44 44 44 47 48 44 44 41 41 37 34 32 33 33 29 26 28 32 31
52 49 45 46 46 46 42 46 44 42 37 36 34 31 27 25 30 25 16 19 22 27
Height
693 688 686 684 686 685 688 688 652 674 682 691 699 707 716 726 730 736 741 745 746 749
690 683 679 681 683 676 676 693 680 656 678 688 694 701 711 720 726 730 735 739 742 743
691 683 677 682 672 672 674 680 674 663 677 686 691 702 707 716 721 726 730 734 737 738
698 682 681 677 671 674 685 681 682 666 675 686 689 696 701 712 715 720 724 728 731 733
703 687 683 679 680 681 692 685 684 682 683 686 702 692 699 707 712 714 718 724 726 730
704 687 688 692 692 689 700 701 680 687 697 700 694 687 708 713 713 718 721 723 726 727
711 710 705 703 702 691 709 705 706 707 710 711 707 704 708 708 717 723 725 725 728 730
730 724 717 703 712 721 720 721 727 717 716 714 714 718 718 723 726 728 725 725 729 731
741 735 729 729 721 727 739 741 737 738 733 727 732 735 733 729 729 732 730 730 731 732
758 751 744 731 735 747 751 755 754 743 737 743 744 743 740 739 740 741 740 737 734 734
763 754 752 755 751 752 757 757 752 746 746 749 748 746 743 745 747 748 747 747 745 743
774 769 768 763 761 762 767 762 759 761 762 761 758 755 753 755 757 759 757 755 753 746
788 784 777 774 776 780 775 773 776 779 775 771 765 766 767 767 763 763 763 760 754 751
792 790 790 788 787 784 785 787 785 784 777 777 773 770 772 773 771 768 770 765 760 756